Wind_Speed
11 10 10 9 8 8 7 6 6 5 5 4 4 4 4 4 4 3 3 3 3 3 3 3 4 4 4 5 5 6 6 6 7 7 8 9 9 9 10 10 10 10 11
13 13 12 11 10 9 9 8 7 7 6 6 6 5 5 5 5 5 4 4 4 4 4 4 4 5 5 6 6 7 7 7 8 8 9 9 10 10 10 11 11 11 12
14 14 13 12 12 11 10 10 9 9 8 8 7 7 6 6 6 6 6 5 5 5 5 5 5 6 6 7 7 7 8 8 9 10 10 10 10 11 11 11 12 12 13
15 15 14 13 13 12 12 11 11 10 10 9 9 8 8 7 7 7 7 6 6 6 6 6 6 7 7 8 8 8 9 9 9 10 11 11 12 12 12 13 13 13 14
17 17 16 15 14 13 13 12 12 12 11 11 10 9 9 8 8 8 8 8 7 7 7 7 8 8 8 9 9 9 10 10 11 11 12 12 13 14 14 14 14 15 15
19 18 18 17 16 15 14 14 14 13 13 12 12 11 10 10 9 9 9 9 9 9 9 9 9 9 10 10 11 11 11 12 12 12 13 13 14 15 15 15 15 16 17
21 20 20 19 18 17 16 15 15 15 14 14 13 13 12 12 11 11 10 10 10 11 11 11 11 11 12 12 13 13 13 13 13 14 14 14 15 16 16 16 16 17 18
23 22 22 21 20 19 18 17 16 16 15 15 14 14 13 13 13 13 12 12 12 12 12 13 13 14 14 14 14 14 15 15 15 15 15 16 16 17 17 18 18 19 19
26 24 24 23 22 21 20 19 18 17 16 16 15 15 15 15 15 15 14 14 14 14 14 15 15 15 15 15 16 16 16 17 17 17 18 18 18 18 19 19 20 20 20
28 26 26 25 24 23 22 21 19 18 18 17 17 17 16 16 16 16 16 16 16 16 16 16 17 17 17 17 18 18 19 19 19 19 20 20 20 20 21 21 21 21 22
30 28 28 27 26 25 23 22 21 20 19 19 18 18 18 18 18 18 17 17 17 17 17 18 18 18 18 19 19 20 21 21 21 22 22 22 22 22 23 23 23 23 24
32 30 29 29 28 27 26 24 23 22 21 20 20 19 19 19 19 19 18 18 18 18 19 19 19 19 20 21 21 22 22 23 23 24 24 24 24 24 24 25 25 25 25
34 32 32 30 29 29 28 27 25 24 24 23 22 22 21 21 21 21 20 20 20 20 20 21 21 21 22 23 23 24 24 24 25 25 25 25 25 25 25 26 26 27 27
35 34 34 33 31 30 30 29 27 26 26 25 24 24 23 23 23 22 23 23 22 22 23 23 23 24 24 25 25 26 26 27 27 26 26 26 26 26 26 27 27 28 28
38 36 35 35 33 32 31 31 30 28 27 27 26 26 25 25 25 25 25 25 25 25 25 25 26 26 27 27 27 28 28 29 29 29 28 28 28 28 28 28 28 29 29
39 38 37 36 36 34 33 32 32 31 29 28 29 28 28 28 28 27 27 27 27 27 27 28 28 28 29 29 30 30 30 30 30 30 30 30 30 30 30 30 30 30 31
39 39 39 38 38 37 36 35 34 33 32 31 30 30 30 30 30 30 30 30 30 30 30 30 31 31 32 32 32 33 33 32 32 32 32 31 31 32 31 31 31 32 33
41 41 41 41 40 39 38 38 37 36 35 34 33 32 32 32 32 32 32 32 32 32 33 33 33 34 34 34 34 35 35 35 34 34 34 34 33 33 33 33 33 34 35
42 42 42 42 42 42 41 39 39 38 37 36 35 34 34 34 34 35 35 35 34 35 36 36 36 36 36 37 37 37 36 36 35 35 35 35 35 35 35 35 35 35 36
43 43 43 43 43 44 43 42 40 39 38 38 38 37 36 36 37 37 37 37 38 38 38 38 38 38 39 39 38 37 36 36 36 36 36 36 37 37 37 36 36 36 37
42 43 43 44 44 44 44 43 42 40 40 39 39 39 38 38 38 38 39 39 40 40 40 39 40 40 39 38 38 37 37 37 36 37 36 37 37 38 38 38 38 38 39
43 43 43 44 44 44 44 44 43 42 41 41 40 40 40 40 39 40 42 42 41 42 42 41 41 40 39 39 39 38 38 38 38 38 38 38 38 38 39 39 39 40 40
45 44 43 44 45 45 45 44 44 43 43 42 41 41 42 41 41 41 43 43 43 43 42 41 41 40 40 40 39 39 39 39 40 39 38 38 38 39 40 41 41 41 42
46 45 45 45 46 46 46 45 44 43 43 43 43 43 43 43 44 44 43 43 44 44 43 42 42 42 41 41 40 41 41 41 41 40 40 40 40 41 41 41 42 43 43
46 46 46 45 45 46 46 46 45 45 44 44 45 44 44 44 44 43 42 43 43 43 44 43 43 43 43 42 41 41 41 42 42 42 41 41 41 41 42 42 43 43 43
47 47 46 45 45 45 45 46 46 46 46 46 46 44 43 43 42 41 41 41 42 41 42 42 42 42 42 42 42 42 43 43 42 42 42 42 42 42 42 43 43 43 44
Wind_Direction
223 224 223 223 224 223 226 229 233 236 238 238 240 247 252 249 245 251 251 259 276 286 293 298 305 313 320 325 328 330 331 333 336 337 337 336 335 335 335 335 335 335 335
228 227 227 227 227 226 228 231 233 235 237 241 245 251 256 254 252 253 258 262 271 276 281 288 296 305 310 315 320 325 326 326 326 328 330 330 330 331 331 330 330 329 328
231 231 231 231 229 229 230 231 233 236 240 245 249 253 255 255 254 253 256 267 272 273 276 282 289 299 305 309 317 321 321 320 321 322 324 326 326 325 324 324 324 324 323
231 232 233 231 230 231 231 232 234 236 240 245 249 251 251 252 254 257 259 265 272 276 277 284 289 295 301 306 311 316 316 316 317 318 320 323 324 322 320 319 320 319 320
232 233 234 232 231 231 232 233 236 238 240 242 246 248 249 253 256 258 263 267 271 274 278 286 293 296 300 304 306 309 311 314 314 315 316 318 319 318 316 316 317 316 316
232 233 235 233 232 233 234 236 237 239 241 243 246 248 250 254 257 258 262 267 271 274 278 284 289 293 298 301 303 305 307 310 311 312 313 314 315 315 314 313 313 314 314
233 234 235 235 235 235 237 239 240 241 242 244 247 248 250 254 257 261 264 268 272 275 277 281 285 290 295 297 299 302 304 306 309 310 310 311 311 311 311 311 311 311 312
235 235 236 235 236 237 238 240 242 243 242 243 245 246 250 254 259 263 265 270 274 277 279 282 285 288 291 293 297 300 304 307 307 308 308 310 311 310 309 309 309 310 310
235 236 236 236 237 238 238 240 241 241 241 242 244 247 251 256 261 264 267 270 274 278 280 283 285 287 289 292 295 298 301 303 306 307 307 306 307 307 307 307 307 308 308
235 235 236 236 236 237 239 240 240 240 242 244 246 249 252 256 261 265 267 270 273 277 280 283 284 288 290 291 293 295 297 300 302 304 305 305 304 304 304 304 305 305 306
235 234 235 236 235 235 236 240 241 241 243 245 248 250 253 257 261 264 266 269 273 276 278 280 284 288 290 291 291 293 295 296 298 300 302 303 302 302 302 302 303 303 304
235 235 235 236 235 236 236 238 240 241 243 245 248 251 254 257 261 264 266 269 273 277 278 279 283 286 288 290 291 292 293 295 296 297 298 300 301 301 300 300 300 301 302
235 235 235 236 236 237 236 237 238 240 241 244 248 251 254 257 260 264 266 269 273 277 279 280 283 285 287 289 289 290 291 293 294 296 297 298 299 299 300 299 299 300 301
234 234 235 236 235 236 236 237 239 240 242 244 247 251 255 257 261 265 267 270 273 277 279 280 282 284 286 288 289 289 289 290 292 294 295 296 297 298 298 299 299 299 300
234 234 234 234 235 236 237 238 239 242 244 245 248 251 255 257 261 263 267 270 273 276 279 281 282 283 285 286 288 289 288 288 289 291 293 294 295 295 296 297 298 299 300
233 233 232 233 234 235 237 239 241 242 245 248 251 253 256 258 260 263 267 269 271 274 277 279 281 283 285 286 287 288 289 288 288 288 290 291 292 293 294 295 295 297 298
233 233 233 233 234 235 236 239 241 243 246 248 249 253 256 258 260 263 267 270 271 273 276 277 280 282 284 286 287 288 288 288 288 287 288 289 289 291 292 293 294 295 297
233 233 234 234 234 235 237 239 241 243 245 248 250 254 257 260 262 265 267 270 272 274 276 277 279 281 283 285 286 287 287 287 287 287 287 287 288 288 289 291 292 294 295
233 233 234 234 235 236 238 240 242 243 245 248 252 255 258 261 263 266 268 271 272 273 275 276 278 280 282 283 285 286 286 285 286 286 286 287 287 287 288 290 292 293 294
233 234 233 234 235 237 238 240 243 244 245 248 252 256 259 261 264 266 268 271 273 274 276 276 277 280 282 283 283 284 284 284 285 285 285 286 287 287 287 289 291 294 294
233 234 234 235 236 238 240 241 244 247 248 251 253 256 260 263 265 267 269 271 274 276 278 279 280 281 282 282 283 283 282 283 284 285 285 286 286 288 288 289 291 292 294
235 234 236 237 238 239 241 243 245 248 250 252 254 257 261 264 265 267 269 271 273 276 278 279 280 281 281 282 283 282 282 282 283 284 285 286 287 287 288 290 291 292 293
237 237 238 239 240 241 243 244 246 248 251 254 257 260 262 264 266 268 270 271 273 274 275 276 278 280 280 281 281 281 281 282 282 282 283 285 286 287 289 290 291 290 291
239 240 240 240 241 243 244 245 247 249 253 255 258 260 262 264 266 269 270 271 271 271 272 275 277 278 279 279 280 281 280 281 282 283 283 284 286 287 289 290 290 290 291
239 240 241 241 243 244 245 246 247 249 252 255 258 262 263 265 266 268 268 269 270 270 272 274 275 277 278 279 280 280 279 280 282 283 284 285 286 287 288 288 289 290 290
238 239 241 242 244 245 246 248 249 250 251 254 258 261 263 265 266 267 267 268 269 271 273 275 275 276 278 278 279 280 280 280 281 283 284 285 285 286 288 288 288 290 291
Height
5874 5874 5875 5876 5877 5877 5878 5879 5879 5880 5881 5881 5882 5882 5882 5883 5882 5882 5882 5882 5882 5882 5881 5881 5880 5880 5879 5878 5877 5876 5875 5874 5873 5872 5871 5870 5868 5867 5866 5864 5863 5861 5859
5872 5873 5874 5875 5875 5876 5877 5877 5878 5879 5880 5881 5881 5881 5882 5882 5882 5882 5882 5882 5881 5881 5881 5880 5880 5879 5878 5877 5877 5876 5875 5874 5873 5871 5870 5869 5867 5866 5864 5863 5862 5860 5858
5870 5871 5872 5873 5874 5875 5875 5876 5877 5878 5879 5879 5880 5880 5881 5881 5881 5881 5881 5881 5880 5880 5880 5879 5879 5878 5877 5877 5876 5875 5874 5873 5872 5870 5869 5868 5866 5865 5863 5862 5860 5859 5857
5868 5869 5870 5871 5872 5873 5873 5874 5876 5876 5877 5878 5878 5879 5879 5879 5880 5880 5880 5879 5879 5879 5878 5878 5878 5877 5876 5875 5875 5874 5873 5871 5870 5869 5868 5866 5865 5864 5862 5860 5859 5857 5856
5865 5866 5867 5869 5870 5871 5872 5873 5874 5875 5875 5876 5877 5877 5878 5878 5878 5878 5878 5878 5878 5878 5877 5877 5876 5876 5875 5874 5873 5872 5871 5870 5869 5867 5866 5865 5863 5862 5860 5859 5857 5855 5854
5862 5863 5864 5866 5867 5868 5869 5870 5871 5872 5873 5874 5875 5875 5876 5876 5877 5877 5877 5877 5876 5876 5876 5876 5875 5874 5873 5873 5872 5871 5869 5868 5867 5866 5864 5863 5861 5860 5858 5856 5855 5853 5851
5858 5860 5861 5863 5864 5866 5867 5868 5869 5870 5871 5872 5872 5873 5874 5874 5875 5875 5875 5875 5875 5875 5874 5874 5873 5872 5872 5871 5870 5869 5867 5866 5865 5864 5862 5861 5859 5857 5856 5854 5852 5850 5848
5854 5856 5857 5859 5861 5863 5864 5865 5866 5867 5868 5869 5870 5870 5871 5872 5872 5873 5873 5873 5873 5872 5872 5871 5871 5870 5869 5868 5868 5866 5865 5864 5863 5861 5860 5858 5856 5855 5853 5851 5849 5847 5845
5849 5851 5853 5855 5857 5859 5860 5862 5863 5864 5865 5866 5867 5868 5869 5869 5870 5870 5870 5870 5870 5870 5869 5869 5868 5867 5867 5866 5865 5864 5863 5861 5860 5858 5857 5855 5854 5852 5850 5848 5846 5844 5842
5844 5846 5849 5851 5853 5855 5857 5858 5859 5861 5862 5863 5864 5865 5866 5866 5867 5867 5867 5867 5867 5867 5866 5866 5865 5864 5863 5863 5862 5861 5859 5858 5857 5855 5854 5852 5850 5848 5846 5844 5842 5840 5838
5838 5841 5843 5846 5848 5851 5852 5854 5856 5857 5858 5859 5860 5861 5862 5863 5863 5863 5863 5863 5863 5863 5863 5862 5862 5861 5860 5859 5858 5857 5856 5854 5853 5852 5850 5848 5846 5844 5842 5840 5838 5835 5833
5832 5835 5838 5841 5843 5846 5848 5850 5851 5853 5854 5855 5856 5857 5858 5859 5859 5860 5860 5860 5859 5859 5859 5858 5857 5857 5856 5855 5854 5853 5851 5850 5849 5847 5845 5844 5842 5840 5837 5835 5833 5831 5828
5826 5829 5832 5835 5838 5841 5843 5845 5846 5848 5849 5851 5852 5853 5854 5855 5855 5855 5856 5855 5855 5855 5855 5854 5853 5853 5852 5851 5849 5848 5847 5845 5844 5842 5840 5839 5837 5835 5833 5830 5828 5826 5823
5819 5822 5826 5829 5832 5835 5837 5839 5841 5842 5844 5845 5847 5848 5849 5850 5850 5851 5851 5851 5851 5850 5850 5849 5848 5848 5847 5846 5844 5843 5841 5840 5838 5837 5835 5833 5831 5829 5827 5825 5823 5821 5818
5811 5815 5819 5822 5826 5829 5831 5833 5835 5837 5839 5840 5842 5843 5844 5845 5845 5846 5846 5846 5845 5845 5844 5844 5843 5842 5841 5840 5839 5837 5836 5834 5833 5831 5829 5828 5826 5824 5822 5819 5817 5815 5812
5804 5807 5811 5815 5819 5822 5825 5827 5829 5831 5833 5835 5836 5837 5838 5839 5839 5840 5840 5840 5840 5839 5839 5838 5837 5836 5835 5834 5833 5831 5830 5828 5827 5825 5823 5821 5820 5818 5816 5813 5811 5808 5806
5796 5800 5804 5808 5811 5814 5817 5820 5822 5825 5827 5828 5829 5831 5832 5832 5833 5833 5834 5833 5833 5833 5832 5831 5830 5829 5829 5827 5826 5824 5823 5821 5820 5818 5816 5815 5813 5811 5809 5807 5804 5802 5799
5787 5792 5796 5800 5803 5806 5810 5812 5815 5817 5820 5821 5822 5823 5825 5826 5826 5826 5827 5827 5826 5826 5825 5824 5823 5823 5821 5820 5819 5817 5815 5814 5812 5811 5809 5807 5806 5804 5802 5799 5797 5794 5792
5779 5784 5788 5792 5795 5799 5802 5804 5807 5809 5811 5813 5815 5816 5817 5818 5819 5819 5819 5819 5818 5818 5817 5816 5815 5814 5814 5812 5811 5809 5807 5806 5804 5803 5801 5800 5798 5796 5794 5791 5789 5787 5784
5770 5774 5779 5783 5787 5790 5793 5796 5798 5801 5803 5805 5807 5808 5808 5809 5810 5810 5810 5810 5810 5809 5808 5808 5807 5805 5804 5803 5802 5800 5799 5797 5796 5794 5793 5791 5789 5787 5785 5783 5781 5778 5776
5761 5765 5770 5774 5778 5781 5785 5788 5791 5793 5795 5797 5798 5799 5800 5800 5801 5801 5801 5801 5801 5800 5799 5798 5797 5796 5795 5793 5792 5791 5790 5788 5787 5786 5784 5783 5781 5779 5777 5774 5772 5770 5767
5752 5757 5762 5766 5769 5773 5776 5779 5782 5785 5787 5788 5789 5790 5791 5792 5792 5792 5792 5792 5791 5791 5790 5789 5788 5787 5785 5784 5783 5782 5781 5780 5778 5777 5775 5774 5772 5770 5768 5766 5763 5761 5758
5744 5749 5752 5756 5760 5763 5767 5770 5773 5775 5778 5779 5781 5782 5782 5782 5782 5782 5783 5782 5782 5781 5780 5780 5778 5778 5776 5775 5773 5772 5771 5771 5770 5769 5767 5765 5763 5761 5759 5756 5754 5751 5748
5735 5739 5743 5746 5750 5753 5757 5760 5763 5766 5768 5770 5771 5772 5773 5773 5773 5772 5772 5772 5772 5771 5771 5770 5769 5768 5767 5765 5764 5762 5761 5760 5760 5759 5759 5756 5754 5752 5749 5747 5744 5741 5738
5725 5729 5732 5736 5740 5743 5746 5750 5753 5755 5758 5760 5761 5762 5763 5763 5763 5762 5761 5761 5761 5761 5760 5760 5759 5758 5756 5755 5754 5753 5751 5750 5749 5749 5748 5747 5745 5742 5739 5736 5734 5731 5728
5715 5719 5722 5726 5730 5733 5736 5739 5742 5745 5747 5749 5750 5750 5751 5752 5753 5752 5751 5751 5751 5750 5750 5749 5749 5747 5746 5745 5744 5743 5741 5741 5740 5738 5737 5736 5735 5732 5729 5726 5723 5721 5717